Location: Nelson
(41.2830°S, 173.2830°E)
Time: 02:19:46
(UTC+13:00)

ERBS - Pass Details

Date: 24 January 2019
Orbit: 418 x 432 km, 57.0° (Epoch: 19 February)

Event Time Altitude Azimuth Distance (km) Brightness Sun altitude
Rises 22:30:02 0° 219° (SW) 2,444 7.9 -15.3°
Reaches altitude 10° 22:32:19 10° 207° (SSW) 1,569 6.3 -15.7°
Maximum altitude 22:35:29 31° 143° (SE) 812 3.7 -16.1°
Enters shadow 22:36:55 22° 101° (E) 1,011 3.9 -16.3°
